アトラス彗星

C/2019 E3 ( ATLAS )

English version
Home page
Updated on October 12, 2023

---------------------------------------------------------------------

・ プロフィール

発見日 2019年3月5日
発見光度 18.4等
発見者 Asteroid Terrestrial-Impact Last Alert System (ATLAS) search program

・ 写真集

・ 軌道要素

Epoch 2023 Sept. 13.0 TT = JDT 2460200.5
T 2023 Nov. 15.17173 TT                                 Rudenko
q  10.3129920            (2000.0)            P               Q
z  +0.0000940      Peri.  280.69453     +0.15942370     +0.96243235
 +/-0.0000003      Node   347.23904     +0.26396252     -0.25608945
e   0.9990306      Incl.   84.29777     -0.95126646     +0.09023393
>From 511 observations 2015 Jan. 22-2023 Aug. 26, mean residual 0".5.

・ 星図

・ 光度変化

        m1 = -3.5 + 5 logΔ + 15.0 log r

---------------------------------------------------------------------

軌道要素はM.P.E.C. 2023-Q150に掲載されたものです。
星図はステラナビゲータ Ver.10 (アストロアーツ) で作成したものです。
光度グラフはComet for Windowsで作成したものです。

---------------------------------------------------------------------

Copyright(C) Seiichi Yoshida (comet@aerith.net). All rights reserved.